Galveston, TX

7:13 AM CDT on June 28, 2017 (GMT -0500)
Scholes International At Galveston

Weather History for KGLS - May, 2014

Change the Weather History Date:

Thursday, May 22, 2014

  Actual Average Record
Temperature  
Mean Temperature 79 °F 79 °F  
Max Temperature 83 °F 85 °F 90 °F (2005)
Min Temperature 74 °F 74 °F 54 °F (1892)
Degree Days  
Heating Degree Days 0 0  
Month to date heating degree days 0 0  
Since 1 July heating degree days 1425 1009  
Cooling Degree Days 14 14  
Month to date cooling degree days 202 257  
Year to date cooling degree days 390 500  
Growing Degree Days 28 (Base 50)    
Moisture  
Dew Point 72 °F    
Average Humidity 81    
Maximum Humidity 93    
Minimum Humidity 69    
Precipitation  
Precipitation 0.00 in 0.16 in 2.56 in (1913)
Month to date precipitation 0.40 2.49  
Year to date precipitation 5.37 15.47  
Snow  
Snow 0.00 in - - ()
Month to date snowfall 0.0  
Since 1 July snowfall T 0.0  
Snow Depth 0.00 in    
Sea Level Pressure  
Sea Level Pressure 30.11 in    
Wind  
Wind Speed 13 mph (SSE)    
Max Wind Speed 18 mph    
Max Gust Speed 22 mph    
Visibility 10 miles    
Events      
T = Trace of Precipitation, MM = Missing Value Source: NWS Daily Summary

Daily Weather History Graph

Daily Weather History Graph

Search for Another Location

Airport or City:

Trip Planner

Search our weather history database for the weather conditions in past years. The results will help you decide how hot, cold, wet, or windy it might be!

Date:

Astronomy

May. 22, 2014 Rise Set
Actual Time 6:23 AM CDT 8:08 PM CDT
Civil Twilight 5:57 AM CDT 8:35 PM CDT
Nautical Twilight 5:25 AM CDT 9:06 PM CDT
Astronomical Twilight 4:52 AM CDT 9:40 PM CDT
Moon 2:13 AM CDT (5/22) 2:24 PM CDT (5/22)
Length of Visible Light 14h 37m
Length of Day
13h 45m
Last Quarter, 37% of the Moon is Illuminated
May 22
Last Quarter
May 28
New
Jun 5
First Quarter
Jun 12
Full
Jun 19
Last Quarter

Hourly Weather History & Observations

Time (CDT) Temp. Heat Index Dew Point Humidity Pressure Visibility Wind Dir Wind Speed Gust Speed Precip Events Conditions
12:52 AM 75.0 °F - 72.0 °F 90% 30.10 in 10.0 mi SSE 18.4 mph - N/A   Overcast
1:52 AM 75.0 °F - 72.0 °F 90% 30.10 in 10.0 mi SSE 16.1 mph - N/A   Overcast
2:48 AM 75.2 °F - 71.6 °F 89% 30.09 in 10.0 mi SSE 15.0 mph - N/A   Overcast
2:52 AM 75.0 °F - 72.0 °F 90% 30.10 in 10.0 mi SSE 16.1 mph - N/A   Overcast
2:59 AM 75.0 °F - 72.0 °F 90% 30.10 in 10.0 mi SSE 13.8 mph - N/A   Mostly Cloudy
3:14 AM 75.0 °F - 72.0 °F 90% 30.10 in 10.0 mi SSE 16.1 mph - N/A   Overcast
3:30 AM 75.0 °F - 72.0 °F 90% 30.10 in 10.0 mi SSE 15.0 mph - N/A   Mostly Cloudy
3:52 AM 75.0 °F - 72.0 °F 90% 30.10 in 10.0 mi SSE 15.0 mph - N/A   Scattered Clouds
4:05 AM 75.0 °F - 72.0 °F 90% 30.10 in 10.0 mi SSE 15.0 mph - N/A   Mostly Cloudy
4:52 AM 73.9 °F - 72.0 °F 93% 30.10 in 10.0 mi SSE 11.5 mph - N/A   Mostly Cloudy
5:52 AM 73.9 °F - 71.1 °F 91% 30.10 in 10.0 mi SSE 11.5 mph - N/A   Mostly Cloudy
6:04 AM 73.9 °F - 71.1 °F 91% 30.11 in 10.0 mi SSE 9.2 mph - N/A   Scattered Clouds
6:14 AM 73.9 °F - 71.1 °F 91% 30.11 in 10.0 mi SSE 9.2 mph - N/A   Mostly Cloudy
6:52 AM 73.9 °F - 72.0 °F 93% 30.12 in 10.0 mi SSE 10.4 mph - N/A   Mostly Cloudy
7:09 AM 75.0 °F - 72.0 °F 90% 30.12 in 10.0 mi SSE 9.2 mph - N/A   Scattered Clouds
7:52 AM 75.9 °F - 72.0 °F 87% 30.12 in 10.0 mi SSE 9.2 mph - N/A   Partly Cloudy
8:52 AM 78.1 °F - 72.0 °F 81% 30.13 in 10.0 mi SSE 11.5 mph - N/A   Partly Cloudy
9:17 AM 79.0 °F - 73.0 °F 82% 30.13 in 10.0 mi SSE 10.4 mph - N/A   Mostly Cloudy
9:29 AM 79.0 °F - 72.0 °F 79% 30.13 in 10.0 mi SE 11.5 mph - N/A   Mostly Cloudy
9:52 AM 80.1 °F 84.2 °F 73.0 °F 79% 30.13 in 10.0 mi SE 12.7 mph - N/A   Scattered Clouds
10:52 AM 80.1 °F 84.2 °F 73.0 °F 79% 30.14 in 10.0 mi SSE 12.7 mph - N/A   Mostly Cloudy
11:52 AM 81.0 °F 85.2 °F 72.0 °F 74% 30.15 in 10.0 mi SE 10.4 mph - N/A   Mostly Cloudy
11:59 AM 81.0 °F 85.2 °F 72.0 °F 74% 30.15 in 10.0 mi SSE 11.5 mph - N/A   Scattered Clouds
12:46 PM 80.6 °F 84.6 °F 71.6 °F 74% 30.14 in 10.0 mi SSE 10.4 mph - N/A   Mostly Cloudy
12:52 PM 81.0 °F 85.2 °F 72.0 °F 74% 30.14 in 10.0 mi SSE 11.5 mph 17.3 mph N/A   Mostly Cloudy
1:52 PM 82.0 °F 86.7 °F 72.0 °F 71% 30.14 in 10.0 mi SSE 10.4 mph - N/A   Mostly Cloudy
2:52 PM 81.0 °F 84.9 °F 71.1 °F 72% 30.13 in 10.0 mi ESE 9.2 mph - N/A   Mostly Cloudy
3:52 PM 81.0 °F 85.2 °F 72.0 °F 74% 30.11 in 10.0 mi SE 11.5 mph - N/A   Mostly Cloudy
4:52 PM 80.1 °F 83.8 °F 72.0 °F 76% 30.09 in 10.0 mi SE 15.0 mph - N/A   Mostly Cloudy
4:59 PM 80.1 °F 83.8 °F 72.0 °F 76% 30.09 in 10.0 mi SE 11.5 mph - N/A   Scattered Clouds
5:52 PM 80.6 °F 84.6 °F 71.6 °F 74% 30.08 in 10.0 mi SE 13.8 mph - N/A   Clear
6:52 PM 78.1 °F - 72.0 °F 81% 30.07 in 10.0 mi SE 16.1 mph - N/A   Partly Cloudy
7:52 PM 75.9 °F - 72.0 °F 87% 30.09 in 10.0 mi SE 13.8 mph - N/A   Scattered Clouds
8:52 PM 75.0 °F - 72.0 °F 90% 30.09 in 10.0 mi SSE 12.7 mph - N/A   Partly Cloudy
9:52 PM 75.0 °F - 72.0 °F 90% 30.09 in 10.0 mi SE 15.0 mph - N/A   Partly Cloudy
10:52 PM 75.0 °F - 72.0 °F 90% 30.09 in 10.0 mi SE 15.0 mph - N/A   Scattered Clouds
11:17 PM 75.0 °F - 72.0 °F 90% 30.10 in 10.0 mi SSE 16.1 mph - N/A   Mostly Cloudy
11:40 PM 75.0 °F - 72.0 °F 90% 30.11 in 10.0 mi SSE 12.7 mph - N/A   Scattered Clouds
11:52 PM 75.0 °F - 72.0 °F 90% 30.11 in 10.0 mi SSE 13.8 mph - N/A   Scattered Clouds